Notices

What's New in latest Release from April 7th, 2021:

- Updated Glossary, including Speed of Maximum Gust, and Total Hourly Precipitation

- Updated national and regional climate services offices contacts and prices information

- Addition of station inventory lists for 1981-2010, 1971-2000, and 1961-1990 Normals.

If you haven't already, please take our survey and provide feedback about our website: https://eccc.sondage-survey.ca/f/LanguageSelection.aspx?s=442ca660-fcf1-47c0-95a9-59707d6fd709

Hourly Data Report for November 13, 2019

VICTORIA UNIVERSITY CS
BRITISH COLUMBIA
Current Station Operator: ECCC - MSC

48°27'25.200" N
123°18'16.600" W
60.10 m
1018598
71783
WYJ

Download Data

Hourly Data (November 2019)
Hourly Data Report for November 13, 2019
TIME
LST
Temp Definition
°C
Dew Point Definition
°C
Rel Hum Definition
%
Precip. Amount Definition
mm

Wind Dir Definition
10's deg

Wind Spd Definition
km/h
Visibility Definition
km
Stn Press Definition
kPa
Hmdx Definition


Wind Chill Definition


Weather Definition


00:00 8.7 8.6 99 0.0 34 3   101.46     LegendNANA
01:00 8.8 8.5 98 0.0 32 4   101.48     LegendNANA
02:00 8.9 8.4 97 0.0 29 3   101.50     LegendNANA
03:00 8.9 8.0 94 0.0 35 6   101.49     LegendNANA
04:00 8.2 7.5 96 0.0 36 4   101.46     LegendNANA
05:00 7.2 6.6 96 0.0 35 3   101.48     LegendNANA
06:00 8.5 8.2 98 0.0 35 5   101.46     LegendNANA
07:00 8.7 8.5 98 0.0 1 5   101.42     LegendNANA
08:00 9.0 8.7 98 0.0 34 4   101.49     LegendNANA
09:00 9.2 8.8 97 0.0 36 3   101.49     LegendNANA
10:00 9.4 8.8 96 0.0 1 7   101.44     LegendNANA
11:00 9.6 8.9 95 0.0 2 9   101.45     LegendNANA
12:00 10.0 9.2 95 0.0 1 10   101.40     LegendNANA
13:00 10.3 9.0 92 0.0 1 8   101.31     LegendNANA
14:00 10.5 8.3 87 0.0 35 10   101.26     LegendNANA
15:00 10.1 7.8 85 0.0 36 9   101.22     LegendNANA
16:00 9.6 7.7 88 0.0 1 10   101.17     LegendNANA
17:00 8.9 8.0 94 0.0 2 11   101.11     LegendNANA
18:00 8.6 7.7 94 0.0 1 8   101.09     LegendNANA
19:00 8.4 7.9 97 0.0 1 7   101.07     LegendNANA
20:00 8.1 7.5 96 0.0 35 7   101.05     LegendNANA
21:00 8.1 7.2 94 0.0 36 9   101.02     LegendNANA
22:00 7.9 6.8 93 0.0 36 7   101.02     LegendNANA
23:00 8.1 7.0 93 0.0 36 8   101.02     LegendNANA

Notes on Data Quality.

Legend

  • E = Estimated
  • M = Missing
  • NA = Not Available*
  • [empty] = Indicates an unobserved value
Date modified: